Location: Newark
(41.0000°N, 28.9500°W)
Time: 21:31:07
(UTC+00:00)

Hubble Space Telescope - Visible Passes

Search period start: 25 January 2020 00:00
Search period end: 04 February 2020 00:00
Orbit: 536 x 540 km, 28.5° (Epoch: 25 January)

Date Brightness Start Highest point End Pass type
(mag) Time Alt. Az. Time Alt. Az. Time Alt. Az.
01 Feb 3.3 08:28:46 10° SSW 08:30:56 14° S 08:33:06 10° SE visible
02 Feb 3.2 08:17:58 10° SSW 08:20:11 14° S 08:22:24 10° SE visible
03 Feb 3.6 06:30:11 10° SSE 06:30:11 10° SSE 06:30:18 10° SSE visible
03 Feb 3.2 08:07:14 10° SW 08:09:26 14° S 08:11:39 10° SSE visible
